www.pogodaiklimat.ru

Погода и климат >> Архив погоды >> Канада >> Baker Lake Airport


ПОГОДА в Baker Lake Airport

  • Прогноз погоды в Baker Lake Airport
  • Монитор погоды в Baker Lake Airport
  • Климат города

АРХИВ ПОГОДЫ в Baker Lake Airport

Время (UTC), дата Ветер
(напр.,м/с)
 
Видим.   Явления Облачность Т
(С)
Тd
(С)
f
(%)
Тe
(С)
Тes
(С)
Комфортность P
(гПа)
Po
(гПа)
Тmin
(С)
Tmax
(С)
R
(мм)
R24
(мм)
S
(см)
21 9.08 В 4 40 км 10/10 1500 м
[]
+10.5 +7.1 79 +8 +8 1003.2 1000.9
00 10.08 В 7 24 км слабый дождь 10/10 600 м
[Sc]
+10.6 +8.7 88 +7 +7 1003.1 1000.8 +5.7 +11.6 1
03 10.08 В 7 16 км 10/10 300 м
[]
+9.9 +8.7 92 +6 +6 1003.7 1001.4
06 10.08 С 6 16 км слабая морось {дождь} 10/10 200 м
[Sc]
+9.1 +8.5 96 +5 +5 1005.7 1003.4 +5.7 +11.6 1 40
09 10.08 С 5 30 км 9/9 1000 м
[]
+9.1 +8.3 95 +5 +5 1007.7 1005.4
12 10.08 С 5 30 км {морось} 1/1 600 м
[Sc]
+8.2 +6.8 91 +4 +5 1009.6 1007.3 +6.7 +11.6 0.0
15 10.08 С 5 40 км 9/9 100 м
[]
+10.5 +7.5 82 +8 +8 1011.0 1008.7
18 10.08 С 3 40 км 9/9 600 м
[Sc Ci sp]
+12.5 +7.0 69 +11 +12 1011.2 1008.9 +6.7 +13.2
21 10.08 В 3 40 км 9/9 1000 м
[]
+13.2 +7.0 66 +12 +13 1010.1 1007.8
00 11.08 ЮВ 3 40 км 4/1 1000 м
[Sc Ac As Ci sp]
+13.0 +8.1 72 +12 +13 1008.3 1006.0 +6.7 +14.4
03 11.08 В 6 30 км 9/9 1000 м
[]
+10.4 +6.9 79 +7 +7 1005.3 1003.0
06 11.08 ЮВ 9 24 км слабый дождь 10/8 300 м
[Sc Ac trans]
+10.0 +9.0 93 +6 +6 1000.5 998.2 +6.7 +14.4 2 61
09 11.08 ЮВ 9 12 км 10/10 100 м
[]
+10.0 +9.6 97 +6 +6 995.6 993.3
12 11.08 ЮВ 6 30 км {ливн. осадки, дождь} 10/10 100 м
[Sc]
+10.5 +10.2 98 +7 +7 991.5 989.2 +9.3 +14.4 7
15 11.08 З 7 40 км 9/9 300 м
[]
+14.5 +11.7 83 +12 +13 989.1 986.8
18 11.08 З 6 40 км слабый дождь 10/10 1000 м
[Sc]
+13.3 +9.6 78 +11 +11 988.0 985.7 +9.3 +14.9 0.0
21 11.08 СЗ 3 40 км 9/9 600 м
[]
+15.7 +9.7 67 +15 +16 987.5 985.2
00 12.08 СЗ 13 12 км слабый дождь 10/10 200 м
[Sc]
+11.1 +9.6 90 +6 +6 989.1 986.8 +9.5 +16.6 0.3
03 12.08 СЗ 17 8000 м 10/10 300 м
[]
+8.2 +7.0 92 +2 +2 991.2 988.9
06 12.08 СЗ 15 24 км {морось} 10/10 300 м
[Sc]
+7.5 +5.4 87 +1 +1 997.1 994.8 +7.5 +16.6 1 43
09 12.08 СЗ 13 24 км 10/10 300 м
[]
+5.8 +4.0 88 -1 -1 1002.1 999.8
12 12.08 СЗ 11 30 км {дождь} 9/5 300 м
[Sc Ac As]
+6.2 +3.4 82 -0 -0 1006.0 1003.7 +5.7 +16.6 0.2
15 12.08 СЗ 12 40 км 9/9 600 м
[]
+8.0 +3.4 73 +3 +3 1008.1 1005.8
18 12.08 СЗ 12 40 км слабый дождь 9/6 600 м
[Sc Ac As Ci sp]
+9.1 +4.7 74 +4 +4 1009.5 1007.2 +5.7 +10.7 0.2
21 12.08 СЗ 12 40 км 6/6 1000 м
[]
+10.4 +3.6 63 +6 +6 1011.1 1008.8
00 13.08 СЗ 7 40 км в посл. час дождь 9/9 1000 м
[Sc As op]
+9.5 +3.9 68 +6 +6 1012.7 1010.4 +5.7 +11.7 0.0
03 13.08 СЗ 7 30 км ясно +6.0 +2.6 79 +1 +1 1014.0 1011.7
06 13.08 З 7 30 км {дождь} ясно +4.2 +2.3 87 -2 -2 1014.8 1012.4 +3.6 +11.7 0.0 73
09 13.08 З 7 30 км 3/0
[]
+4.2 +1.8 84 -1 -1 1014.3 1012.0
12 13.08 З 6 30 км 1/0
[Ac As Ci fib]
+5.8 +3.0 82 +1 +1 1014.1 1011.8 +3.4 +11.7
15 13.08 З 7 30 км 5/5 1500 м
[]
+12.0 +5.4 64 +9 +10 1012.4 1010.1
18 13.08 ЮЗ 5 30 км 6/6 600 м
[Sc Ac trans Cc]
+13.3 +6.0 61 +11 +13 1010.8 1008.5 +3.4 +13.9
21 13.08 В 3 30 км 6/6 1000 м
[]
+12.7 +6.8 67 +11 +13 1009.3 1007.0
00 14.08 В 3 30 км 3/3 600 м
[Cu hum Ac cuf]
+10.7 +6.8 77 +9 +10 1008.4 1006.1 +3.4 +14.6
03 14.08 С 1 30 км 8/8 1500 м
[]
+9.1 +6.2 82 +9 +9 1007.6 1005.3
06 14.08 В 2 24 км слабый дождь 10/0 2000 м
[Ac As]
+8.7 +7.8 94 +7 +7 1005.5 1003.2 +3.4 +14.6 0.8 161
09 14.08 В 4 24 км 10/0 2000 м
[]
+8.6 +7.8 95 +6 +6 1003.0 1000.7
12 14.08 В 6 30 км {дождь} 8/1 100 м
[St Ac As]
+8.1 +7.5 96 +4 +4 1000.3 998.0 +7.8 +14.6 0.0
15 14.08 ЮВ 5 30 км 10/0
[]
+9.6 +8.3 92 +6 +8 998.5 996.2
18 14.08 В 2 24 км слабый дождь 10/10 300 м
[Frnb]
+10.7 +10.1 96 +10 +10 996.4 994.1 +7.8 +12.4 2
21 14.08 Ю 7 16 км 10/10 300 м
[]
+12.9 +12.1 95 +10 +10 994.0 991.7
00 15.08 Ю 4 24 км слабая морось {дождь} 10/10 300 м
[Frnb]
+13.3 +12.5 95 +12 +12 992.9 990.6 +7.8 +13.3 11
03 15.08 ЮЗ 4 30 км 8/8 100 м
[]
+12.3 +11.7 96 +10 +10 992.6 990.3
06 15.08 ЮЗ 5 24 км {морось} 9/4 100 м
[Sc Ac trans]
+11.4 +10.9 97 +9 +9 992.6 990.3 +7.8 +13.3 0.0 210
09 15.08 СЗ 9 30 км 4/4 100 м
[]
+10.2 +8.8 91 +6 +6 994.2 991.9
12 15.08 СЗ 5 30 км слабый дождь 9/9 300 м
[Sc]
+10.6 +9.2 91 +8 +8 996.2 993.9 +10.1 +13.3 0.0
15 15.08 СЗ 7 30 км 10/10 300 м
[]
+10.0 +7.2 83 +6 +6 997.4 995.1
18 15.08 С 7 30 км {дождь} 10/10 300 м
[St]
+10.1 +6.4 78 +6 +6 998.4 996.1 +9.5 +12.3
21 15.08 С 9 30 км 10/10 600 м
[]
+9.4 +6.0 79 +5 +5 1000.3 998.0
00 16.08 С 10 30 км 10/10 600 м
[Sc Ac trans Cc]
+8.4 +4.1 74 +3 +3 1002.7 1000.4 +8.4 +11.4
03 16.08 С 11 30 км 9/9 300 м
[]
+7.0 +2.4 73 +1 +1 1004.8 1002.5
06 16.08 СЗ 7 24 км ясно +4.3 +0.8 78 -1 -1 1007.4 1005.1 +4.3 +12.3 231
09 16.08 СЗ 7 30 км 1/1 300 м
[]
+3.7 +1.8 87 -2 -2 1009.3 1007.0
12 16.08 СЗ 7 30 км ясно +4.2 +1.9 85 -2 -1 1011.5 1009.2 +2.6 +12.3
15 16.08 СЗ 5 30 км 8/8 1500 м
[]
+8.1 +1.5 63 +5 +5 1012.2 1009.9
18 16.08 З 7 30 км 4/4 600 м
[Cu hum Ac lent]
+12.2 +0.9 46 +10 +11 1011.1 1008.8 +2.6 +12.2

 

Местоположение метеостанции Baker Lake Airport (Канада): широта 64.30 долгота -96.06 высота над уровнем моря 18 м.

В архиве по умолчанию представлена погода в Baker Lake Airport за последнюю неделю. Архивные данные за месяц целиком и за предыдущие месяцы, начиная с января 2011 года, Вы можете получить, выбрав интересующий диапазон дат из раскрывающегося списка и нажав кнопку "Ввод!".


*Определитесь, кто Вы:
робот инопланетянин человек

Внимание! Время в таблицах - всемирное. Для получения местного времени необходимо прибавить поправку, которая в Baker Lake Airport равна -6 ч.

Смотрите также архив погоды в соседних городах и на ближайших метеорологических станциях:

Погода в Baker Lake Climate (Канада) (4 км)
Погода в Back River MAPS (Канада) (199 км)
Погода в Rankin Inlet (Канада) (256 км)
Погода в Dubawnt Lake (Канада) (302 км)
Погода в Robertson Lake (Канада) (314 км)
Погода в Wager Bay (Канада) (357 км)
Погода в Arviat Climate (Канада) (370 км)
Погода в Arviat (Канада) (370 км)
Погода в Arviat Airport (Канада) (371 км)
Погода в Hanbury River ARS (Канада) (451 км)

Пояснения к столбцам:

Ветер - указаны скорость ветра в м/с - средняя за 10 мин, порывы в срок и между сроками (в фигурных скобках) и направление, откуда дует ветер: С - северный, СВ - северо-восточный, В - восточный, ЮВ - юго-восточный, Ю - южный, ЮЗ - юго-западный, З - западный, СЗ - северо-западный.
Видимость - горизонтальная дальность видимости в метрах или километрах. При видимости от 1 до 10 км при отсутствии осадков обычно наблюдается дымка, при ухудшении видимости до 1 км и менее - туман. В сухую погоду видимость может ухудшаться дымом, пылью или мглою.
Явления - указаны атмосферные явления, наблюдавшиеся в срок или в последний час перед сроком; фигурными скобками обозначены явления, наблюдавшиеся между сроками (за 1-3 часа до срока); квадратными скобками обозначены град или гололедные отложения с указанием их диаметра в мм.
Облачность - указаны через наклонную черту общая и нижняя облачность в баллах и высота нижней границы облаков в метрах; квадратными скобками обозначены формы облаков: Ci - перистые, Cs - перисто-слоистые, Cc - перисто-кучевые, Ac - высококучевые, As - высокослоистые, Sc - слоисто-кучевые, Ns - слоисто-дождевые, Cu - кучевые, Cb - кучево-дождевые. Подробнее классификацию облаков см. в Атласе облаков (PDF).
T - Температура воздуха - температура, измеренная на высоте 2 м над землей.
Td - Температура точки росы - температура, при понижении до которой содержащийся в воздухе водяной пар достигнет насыщения.
f - Относительная влажность воздуха - влажноcть воздуха, измеренная на высоте 2 м над землей.
Te - Эффективная температура - температура, которую ощущает одетый по сезону человек в тени. Характеристика душности погоды. При расчете учитывается влияние влажности воздуха и скорости ветра на теплоощущения человека.
Tes - Эффективная температура на солнце - температура, которую ощущает человек, с поправкой на солнечный нагрев. Характеристика знойности погоды. Зависит от высоты солнца над горизонтом, облачности и скорости ветра. Ночью, в пасмурную погоду, а также при ветре 12 м/с и более поправка равна нулю.
P - Атмосферное давление - приведенное к уровню моря атмосферное давление.
Po - Атмосферное давление - измеренное на уровне метеостанции атмосферное давление.
Tmin - Минимальная температура - минимум температуры воздуха на высоте 2 м над землей.
Tmax - Максимальная температура - максимум температуры воздуха на высоте 2 м над землей.
R - Количество осадков - Количество выпавших осадков за период времени, мм. При наведении курсора мыши на число - период времени, за который выпало указанное количество осадков.
R24 - Количество осадков - Количество выпавших осадков за 24 часа, мм.
S - Снежный покров - Высота снежного покрова, см. При наведении курсора мыши на число - состояние снежного покрова и степень покрытия местности в баллах.